Weather Roundup
Issued by NWS

Home | Current Version | Previous Version | Text Only | Print | Product List | Glossary On
Versions: 1 2 3 4 5 6 7 8 9 10 11 12 13 14 15 16 17 18 19 20 21 22 23 24 25 26 27 28 29 30 31 32 33 34 35 36 37 38 39 40 41 42 43 44 45 46 47 48 49 50
008
NZUS93 KARX 091759
HRRWXR

CURRENT HOURLY OBSERVATIONS ACROSS
MUCH OF THE UPPER MISSISSIPPI VALLEY
NATIONAL WEATHER SERVICE LA CROSSE WI
1200 PM CST TUE FEB 09 2016


...SOUTHEAST MINNESOTA...


CITY           SKY/WX    TMP DP  RH WIND       PRES   REMARKS
ROCHESTER      SUNNY      8   0  69 NW22      30.02F WCI -12
ROCHESTER/MAYO FAIR      10  -1  62 NW20G26   30.04F WCI  -9
WINONA         SUNNY     14   1  57 NW17G24   30.06S WCI  -3
AUSTIN         SUNNY      9   1  72 NW18G24   30.06S WCI -10
ALBERT LEA     MOSUNNY   10   1  67 NW16G28   30.08S WCI  -7
DODGE CENTER   SUNNY     10   0  61 NW21G26   30.04S WCI  -9
PRESTON        SUNNY      8  -2  64 NW18G25   30.01F WCI -11
OWATONNA       SUNNY     10   0  61 NW20      30.09S WCI  -8
FARIBAULT      SUNNY     10   0  61 NW12G22   30.11S WCI  -4
$$

...ELSEWHERE IN MINNESOTA...


CITY           SKY/WX    TMP DP  RH WIND       PRES   REMARKS
MINNEAPOLIS    SUNNY     14   0  53 NW16      30.11F WCI  -2
INTNL FALLS    SUNNY      2  -7  66 N13       30.16F WCI -15
DULUTH         MOSUNNY    5  -6  60 N18       30.02F WCI -15
RED WING       SUNNY     12  -2  52 NW13G21   30.08F WCI  -3
REDWOOD FALLS  MOSUNNY   15   4  61 N15G26    30.20F WCI   0
MANKATO        SUNNY    N/A N/A N/A NW22      30.13F
WORTHINGTON    PTSUNNY   10   3  72 NW22      30.19F WCI  -9
FAIRMONT       SUNNY     10   1  67 NW21G31   30.14F WCI  -9
$$

...SOUTHWEST WISCONSIN...


CITY           SKY/WX    TMP DP  RH WIND       PRES   REMARKS
LA CROSSE      SUNNY     11  -1  58 NW15      30.03S WCI  -5
PRAIRIE DU CHI SUNNY     13   1  56 NW14G24   30.01S WCI  -2
BOSCOBEL       MIX PCPN  15   2  56 NW15G24   29.99S WCI   0
LONE ROCK      MIX PCPN  15   3  59 NW15G22   29.95S WCI   0
PLATTEVILLE    SUNNY     13   5  70 NW16      29.93S WCI  -4
FORT MC COY    MOSUNNY   12   2  65 NW15G23   29.99R WCI  -4
VIROQUA        FAIR      10   1  67 NW16      29.94S WCI  -7
WIS DELLS      CLOUDY    13   2  62 NW16G22   29.89F WCI  -3
$$

...ELSEWHERE IN WISCONSIN...


CITY           SKY/WX    TMP DP  RH WIND       PRES   REMARKS
MILWAUKEE      PTSUNNY   18   6  59 NW15G21   29.82S WCI   4
MADISON        FLURRIES  13   3  64 NW16G23   29.88S WCI  -3
GREEN BAY      CLOUDY    18   6  59 NW16      29.81F WCI   3
EAU CLAIRE     NOT AVBL
BLACK RVR FLS  FAIR      10  -2  56 NW12G17   29.99S WCI  -4
MEDFORD        CLOUDY    11   3  68 N17G28    29.87R HAZE    WCI  -6
WAUSAU         CLOUDY    17   5  59 N15G26    29.83S WCI   2
WIS RAPIDS     CLOUDY    13   2  61 N15G26    29.89F WCI  -3
MARSHFIELD     CLOUDY    13   1  59 NW24      29.87S WCI  -7
RICE LAKE      SUNNY      9  -3  57 NW9       30.04S WCI  -4
$$

...NORTHEAST IOWA...


CITY           SKY/WX    TMP DP  RH WIND       PRES   REMARKS
WATERLOO       MOSUNNY   10   2  69 NW22      30.07R WCI -10
DUBUQUE        PTSUNNY   13   4  67 NW17      29.94S WCI  -4
DECORAH        CLOUDY     9   0  66 NW20      30.00R WCI -11
MASON CITY     MOSUNNY    9   2  73 NW23G33   30.10S WCI -11
CHARLES CITY   CLOUDY     9   1  72 N23G30    30.06S WCI -12
OELWEIN        LGT SNOW   9   3  78 NW25G32   30.03S WCI -13
$$

...ELSEWHERE IN IOWA...


CITY           SKY/WX    TMP DP  RH WIND       PRES   REMARKS
DES MOINES     MOSUNNY   14   4  64 N17       30.15S WCI  -3
IOWA CITY      CLOUDY    14   4  64 NW25      30.06R WCI  -5
FORT DODGE     MOSUNNY   12   1  62 NW14G25   30.17R WCI  -3
MARSHALLTOWN   PTSUNNY   11   4  73 NW25G32   30.09S WCI -10
CEDAR RAPIDS   CLOUDY    13   6  74 NW23      30.03R WCI  -6
$$

...NORTHERN ILLINOIS...


CITY           SKY/WX    TMP DP  RH WIND       PRES   REMARKS
CHICAGO-OHARE  PTSUNNY   18   8  65 NW13      29.83S WCI   5
CHICAGO-MIDWAY FLURRIES  19   9  65 NW12G22   29.84S WCI   7
MOLINE         CLOUDY    18   6  59 NW17      29.98S WCI   3
ROCKFORD       CLOUDY    16   6  65 NW16      29.90F WCI   1
PEORIA         CLOUDY    18   7  62 NW10G20   29.95F WCI   6
$$

NOTE: "FAIR" INDICATES FEW OR NO CLOUDS BELOW 12,000 FEET WITH NO
SIGNIFICANT WEATHER AND/OR OBSTRUCTIONS TO VISIBILITY. WIND
SPEEDS ARE IN MILES-PER-HOUR.




USA.gov is the U.S. government's official web portal to all federal, state and local government web resources and services.